Simultaneous Nadir Overpasses (SNOs) Predictions

Prediction of SNOs between METOP-A and NOAA-19 Satellite Orbit:

Table of predicted SNOs for the next 14.0 days since TLE Epoch: 12/25/2015
Index Date (METOP-A) Time (METOP-A) Lat,Lon (METOP-A) SZA (METOP-A ) Date (NOAA-19) Time (NOAA-19) Lat,Lon (NOAA-19) SZA (NOAA-19 ) Distance(km) Time Diff (sec)
1 01/02/2016 13:15:00 -76.08, 161.42 81.07 01/02/2016 13:13:53 -76.11, 158.43 81.01 80.06 67
2 01/02/2016 14:05:49 75.66, -32.64 98.52 01/02/2016 14:04:39 75.63, -32.63 98.49 3.75 70
3 01/02/2016 14:56:31 -75.64, 134.64 81.51 01/02/2016 14:55:45 -75.64, 134.54 81.50 2.99 46
4 01/02/2016 15:47:12 75.59, -58.18 98.45 01/02/2016 15:46:41 75.61, -58.09 98.47 3.12 31
5 01/02/2016 16:37:54 -75.58, 109.10 81.58 01/02/2016 16:37:46 -75.58, 109.23 81.57 3.53 8
6 01/02/2016 17:28:34 75.58, -83.58 98.42 01/02/2016 17:28:43 75.60, -83.56 98.45 2.53 9
7 01/02/2016 18:19:16 -75.56, 83.70 81.60 01/02/2016 18:19:48 -75.57, 83.76 81.59 1.97 32
8 01/02/2016 19:09:56 75.56,-108.98 98.40 01/02/2016 19:10:45 75.58,-109.02 98.42 3.15 49
9 01/02/2016 20:00:37 -75.54, 58.30 81.62 01/02/2016 20:01:49 -75.56, 58.30 81.61 1.56 72




NCC Satellite Simultaneous Nadir Overpasses (SNOs) Prediction Service
